Location: Claflin County Park
(44.8478°N, 87.5507°W)
Time: 06:28:48
(UTC+00:00)

USA 234 - Pass Details

Date: 21 March 2026
Orbit: 1102 x 1106 km, 123.0° (Epoch: 4 January)

Event Time Altitude Azimuth Distance (km) Brightness Sun altitude
Exits shadow 02:52:32 33° 48° (NE) 1,757 4.1 -29.2°
Maximum altitude 02:54:10 38° 18° (NNE) 1,616 4.2 -29.4°
Drops below altitude 10° 03:00:06 10° 313° (NW) 2,970 6.4 -30.3°
Sets 03:02:45 0° 306° (NW) 3,929 7.3 -30.7°
